SL-14 DEB, 47089

Orbit data source: Space-Track

SL-14 DEB, 47089 is space debris in LEO originally from a launch on Thu, 15 Aug 1991 UTC launched from the Plesetsk Missile And Space Complex (PKMTR). Debris objects in space refer to the collection of defunct objects orbiting the Earth. Examples of debris include non-operational satellites, rocket bodies, and fragments generated from explosions, collisions, or faulty payload assembly.

Loading next visibility...
Identifier
47089, 1991-056DP
Orbit
LEO
Last TLE update
2 days ago
Origin
Manufacturer
Unknown
Mission
Spacecraft
Bus & Motor
Unknown
Mass
Unknown
Launch date (UTC)
1991-08-15 (34 years ago)
Launch vehicle
Unknown
Launch site
Plesetsk Missile And Space Complex (PKMTR)
Object type
Payload
Rocket body
Debris
Shape & HBR
Unknown
Radar Cross Section
Small (<0.1 m²)

Expand to show TLE details & history

TLE from 2 days ago
0 SL-14 DEB
1 47089U 91056DP  25140.35416203  .00000082  00000-0  11673-3 0  9996
2 47089  82.6033  13.2556 0186746 177.1247 183.1010 13.38340397221836
Epoch: 2025-05-20T08:29Z
TLE epoch observation values (Epoch: 2025-05-20T08:29:59.599Z)
Latitude
Longitude
7.50364°
Altitude
1,258.077 km
Speed
7.159 km/s
True Right ascension
00h 53m 01s
True Declination
0° 00' 00"
Sunlit
Object was in daylight at epoch
Visualization orbit readout
Latitude
43.5228°
Longitude
179.23846°
Altitude
1,008.7 km
Speed
7.407 km/s
Apparent Right ascension
16h 31m 08s
Apparent Declination
15° 33' 59"
Sunlit
Object is in daylight
Visualization observer readout
Local Sidereal Time
09:38:32
Azimuth
69.729° E
Elevation
0.234°
Doppler factor
1
Orbital elements
Apogee altitude
1,252.567 km
Perigee altitude
972.791 km
Semi-major axis
7,490.816 km
Eccentricity
0.01867
Inclination
82.6033°
RAAN
13.2556°
Arg. of periapsis
177.1247°
True anomaly
Unknown
Mean anomaly
183.101°
Eccentric anomaly
Unknown
Mean motion
3.34772 °/min
Orbital period
107.54 mins
BSTAR
0.00011673
Loading maneuver chart data...
Loading SW <> Apogee altitude chart data...
Loading historical data...
Loading historical data...
Loading historical data...
Loading historical data...
Loading historical data...
Loading historical data...
Loading historical data...

SL-14 DEB Visibility forecast

Observer location: undefined°, undefined°

Span
Click to sort rows by Start time (UTC) header in descending order
Start Az.
Max El. time (UTC)
Max El. Az.
Max El.
End time (UTC)
End Az.
10 mins2025-05-22 02:22:23.684Z13.671° NNE2025-05-22 02:27:23.684Z72.68° E28.777°2025-05-22 02:32:23.684Z133.906° SE
9 mins2025-05-22 04:11:23.684Z328.68° NNW2025-05-22 04:15:23.684Z280.816° WNW29.243°2025-05-22 04:20:23.684Z214.495° SW
7 mins2025-05-22 14:29:23.684Z107.274° ESE2025-05-22 14:32:23.684Z79.023° E17.436°2025-05-22 14:36:23.684Z43.951° NE
13 mins2025-05-22 16:13:23.684Z192.263° SSW2025-05-22 16:19:23.684Z242.735° WSW44.027°2025-05-22 16:26:23.684Z4.21° NNE
5 mins2025-05-22 18:07:23.684Z279.566° WNW2025-05-22 18:09:23.684Z296.645° NW12.902°2025-05-22 18:12:23.684Z321.883° NNW
|